Wooster, OH

3:04 AM EDT on April 28, 2017 (GMT -0400)
Wayne County

Weather History for KBJJ - March, 2013

Change the Weather History Date:

Saturday, March 16, 2013

  Actual Average Record
Temperature  
Mean Temperature 32 °F -  
Max Temperature 37 °F 42 °F 72 °F (2012)
Min Temperature 28 °F 26 °F 16 °F (1997)
Degree Days  
Heating Degree Days 32    
Moisture  
Dew Point 31 °F    
Average Humidity 91    
Maximum Humidity 100    
Minimum Humidity 82    
Precipitation  
Precipitation 0.02 in - - ()
Sea Level Pressure  
Sea Level Pressure 29.81 in    
Wind  
Wind Speed 9 mph (NNE)    
Max Wind Speed 16 mph    
Max Gust Speed -    
Visibility 5 miles    
Events Rain    
Averages and records for this station are not official NWS values.
T = Trace of Precipitation, MM = Missing Value Source: NWS Daily Summary

Daily Weather History Graph

Daily Weather History Graph

Search for Another Location

Airport or City:

Trip Planner

Search our weather history database for the weather conditions in past years. The results will help you decide how hot, cold, wet, or windy it might be!

Date:

Astronomy

Mar. 16, 2013 Rise Set
Actual Time 7:37 AM EDT 7:35 PM EDT
Civil Twilight 7:09 AM EDT 8:03 PM EDT
Nautical Twilight 6:37 AM EDT 8:34 PM EDT
Astronomical Twilight 6:05 AM EDT 9:07 PM EDT
Moon 10:03 AM EDT (3/16) No Moon Set
Length of Visible Light 12h 53m
Length of Day
11h 58m
Waxing Crescent, 23% of the Moon is Illuminated
Mar 16
Waxing Crescent
Mar 19
First Quarter
Mar 27
Full
Apr 3
Last Quarter
Apr 10
New

Hourly Weather History & Observations

Time (EDT) Temp. Windchill Dew Point Humidity Pressure Visibility Wind Dir Wind Speed Gust Speed Precip Events Conditions
1:56 AM 35.1 °F 28.6 °F 34.0 °F 96% 29.82 in 2.5 mi East 8.1 mph - 0.01 in   Overcast
2:38 AM 35.6 °F 29.9 °F 33.8 °F 93% 29.78 in 3.0 mi ESE 6.9 mph - N/A   Overcast
2:56 AM 35.1 °F 29.3 °F 33.1 °F 92% 29.79 in 3.0 mi East 6.9 mph - N/A   Overcast
3:17 AM 35.6 °F 29.2 °F 33.8 °F 93% 29.75 in 2.5 mi ESE 8.1 mph - N/A   Overcast
3:37 AM 35.6 °F 29.2 °F 33.8 °F 93% 29.74 in 3.0 mi East 8.1 mph - N/A   Overcast
3:56 AM 35.1 °F 28.6 °F 33.1 °F 92% 29.75 in 3.0 mi ESE 8.1 mph - N/A   Overcast
4:56 AM 35.1 °F 29.3 °F 33.1 °F 92% 29.73 in 2.5 mi ESE 6.9 mph - 0.00 in   Overcast
5:56 AM 35.1 °F 30.1 °F 33.1 °F 92% 29.73 in 2.5 mi ESE 5.8 mph - 0.00 in   Overcast
6:56 AM 35.1 °F 30.1 °F 33.1 °F 92% 29.73 in 2.0 mi ESE 5.8 mph - 0.00 in   Overcast
7:43 AM 35.6 °F 29.2 °F 33.8 °F 93% 29.69 in 1.8 mi East 8.1 mph - N/A   Overcast
7:56 AM 35.1 °F 27.9 °F 33.1 °F 92% 29.71 in 1.8 mi East 9.2 mph - N/A   Overcast
8:17 AM 35.6 °F 28.6 °F 33.8 °F 93% 29.67 in 1.0 mi East 9.2 mph - N/A   Overcast
8:24 AM 33.8 °F 26.4 °F 33.8 °F 100% 29.67 in 0.8 mi East 9.2 mph - N/A   Overcast
8:56 AM 35.1 °F 27.9 °F 33.1 °F 92% 29.69 in 1.0 mi ESE 9.2 mph - N/A   Overcast
9:56 AM 35.1 °F 28.6 °F 34.0 °F 96% 29.70 in 1.0 mi East 8.1 mph - 0.00 in Rain Light Rain
10:16 AM 35.6 °F 29.9 °F 33.8 °F 93% 29.67 in 1.2 mi East 6.9 mph - 0.01 in   Overcast
10:56 AM 35.1 °F 27.9 °F 34.0 °F 96% 29.68 in 1.2 mi East 9.2 mph - 0.01 in   Overcast
11:56 AM 36.0 °F 29.0 °F 34.0 °F 93% 29.68 in 1.5 mi NE 9.2 mph - N/A   Overcast
12:56 PM 36.0 °F 32.1 °F 35.1 °F 97% 29.70 in 2.0 mi NE 4.6 mph - N/A   Overcast
1:56 PM 37.9 °F 33.5 °F 35.1 °F 89% 29.73 in 2.5 mi NNW 5.8 mph - N/A   Overcast
2:09 PM 37.4 °F 32.1 °F 35.6 °F 93% 29.70 in 1.8 mi NNW 6.9 mph - N/A   Overcast
2:21 PM 37.4 °F 32.1 °F 35.6 °F 93% 29.71 in 2.0 mi North 6.9 mph - N/A   Overcast
2:39 PM 37.4 °F 30.8 °F 35.6 °F 93% 29.71 in 3.0 mi NW 9.2 mph - N/A   Overcast
2:56 PM 37.9 °F 30.5 °F 36.0 °F 93% 29.76 in 4.0 mi NNW 11.5 mph - N/A   Overcast
3:15 PM 35.6 °F 25.9 °F 33.8 °F 93% 29.74 in 1.8 mi NNW 16.1 mph - N/A   Overcast
3:20 PM 35.6 °F 26.2 °F 33.8 °F 93% 29.75 in 0.8 mi NNW 15.0 mph - N/A   Overcast
3:56 PM 33.1 °F 25.5 °F 33.1 °F 100% 29.80 in 1.0 mi North 9.2 mph - N/A   Overcast
4:07 PM 33.8 °F 24.8 °F 32.0 °F 93% 29.78 in 1.2 mi NNW 12.7 mph - N/A   Overcast
4:28 PM 33.8 °F 24.3 °F 30.2 °F 87% 29.80 in 2.5 mi North 13.8 mph - N/A   Overcast
4:37 PM 32.0 °F 22.5 °F 30.2 °F 93% 29.80 in 4.0 mi North 12.7 mph - N/A   Overcast
4:56 PM 32.0 °F 23.0 °F 30.9 °F 96% 29.85 in 8.0 mi NNW 11.5 mph - N/A   Overcast
5:56 PM 30.9 °F 20.7 °F 28.9 °F 92% 29.89 in 10.0 mi North 13.8 mph - N/A   Overcast
6:56 PM 30.9 °F 21.7 °F 28.0 °F 89% 29.93 in 8.0 mi North 11.5 mph - N/A   Overcast
7:42 PM 30.2 °F 20.8 °F 26.6 °F 86% 29.92 in 10.0 mi NNW 11.5 mph - N/A   Overcast
7:56 PM 30.0 °F 21.1 °F 26.1 °F 85% 29.96 in 10.0 mi North 10.4 mph - N/A   Overcast
8:14 PM 30.2 °F 20.8 °F 26.6 °F 86% 29.94 in 10.0 mi North 11.5 mph - N/A   Overcast
8:52 PM 30.2 °F 21.3 °F 26.6 °F 86% 29.96 in 10.0 mi North 10.4 mph - N/A   Overcast
8:56 PM 30.0 °F 21.1 °F 26.1 °F 85% 29.99 in 10.0 mi North 10.4 mph - N/A   Overcast
9:38 PM 28.4 °F 20.4 °F 24.8 °F 86% 29.97 in 10.0 mi NNW 8.1 mph - N/A   Overcast
9:56 PM 28.9 °F 21.1 °F 25.0 °F 85% 30.01 in 10.0 mi North 8.1 mph - N/A   Overcast
10:24 PM 28.4 °F 21.2 °F 24.8 °F 86% 29.98 in 10.0 mi North 6.9 mph - N/A   Overcast
10:56 PM 28.9 °F 21.9 °F 25.0 °F 85% 30.02 in 10.0 mi North 6.9 mph - N/A   Overcast
11:11 PM 28.4 °F 23.3 °F 24.8 °F 86% 29.99 in 10.0 mi North 4.6 mph - N/A   Overcast
11:18 PM 28.4 °F 22.2 °F 24.8 °F 86% 29.99 in 10.0 mi North 5.8 mph - N/A   Overcast
11:56 PM 28.9 °F 23.9 °F 24.1 °F 82% 30.04 in 10.0 mi North 4.6 mph - N/A   Overcast